Location: Unspecified
(40.7945°N, 111.1337°W)
Time: 10:37:12
(UTC-06:00)

Resurs 1-4 Rocket - Pass Details

Date: 22 March 2019
Orbit: 800 x 814 km, 98.6° (Epoch: 15 October)

Event Time Altitude Azimuth Distance (km) Brightness Sun altitude
Rises 02:34:08 0° 21° (NNE) 3,332 6.0 -46.3°
Reaches altitude 10° 02:36:40 10° 30° (NNE) 2,394 5.1 -46.1°
Enters shadow 02:36:44 10° 30° (NNE) 2,372 5.1 -46.1°
